User: anonymous   Login
Location: Unspecified
(0.0000°N, 0.0000°E)
Time: 00:10:02
(UTC+00:00)
Language:

USA 224 - Orbit

View from above orbital plane
View from above orbital plane
View from above satellite
View from above satellite

Ground track
Ground track

The orbit data is extracted from the following two-line orbital elements,

1 37348U 11002A   14217.00894224 0.00021500  00000-0  20487-3 0    08
2 37348  97.9202 329.1697 0511583  23.5563 336.4436 14.82604243    03
Epoch (UTC): 05 August 2014 00:12:52
Eccentricity: 0.0511583
inclination: 97.9202°
perigee height: 263 km
apogee height: 979 km
right ascension of ascending node: 329.1697°
argument of perigee: 23.5563°
revolutions per day: 14.82604243
mean anomaly at epoch: 336.4436°
orbit number at epoch: 0

The dashed part of the orbit path shows where the satellite is in the earth's shadow,  

DLR